Regional Weather Roundup
Issued by NWS

Home | Current Version | Previous Version | Graphics & Text | Print | Product List | Glossary On
Versions: 1 2 3 4 5 6 7 8 9 10 11 12 13 14 15 16 17 18 19 20 21 22 23 24 25 26 27 28 29 30 31 32 33 34 35 36 37 38 39 40 41 42 43 44 45 46 47 48 49 50
000
ASUS44 KMEG 271910
RWRTN
TENNESSEE HOURLY STATE WEATHER ROUNDUP
NATIONAL WEATHER SERVICE MEMPHIS TN
200 PM CDT SAT MAY 27 2017

TNZ002-004-019-021-049-052-054-088>092-272000-
WEST TENNESSEE

CITY           SKY/WX    TMP DP  RH WIND       PRES   REMARKS
MEMPHIS INTL   PTSUNNY   86  74  67 SW15G23   29.91F HX  94
NWS MEMPHIS      N/A     84 N/A N/A MISG        N/A
JACKSON        PTSUNNY   84  75  74 S15       29.91F HX  92
DYERSBURG        N/A    N/A N/A N/A MISG        N/A
COVINGTON      PTSUNNY   84  73  70 SW12      29.89F HX  91
UNION CITY     CLOUDY    84  73  70 SW12G18   29.87F HX  91
BOLIVAR        PTSUNNY   84  73  70 S12G17    29.91F HX  91
PARIS          PTSUNNY   81  73  78 SW10      29.89F
HUNTINGDON     PTSUNNY   77  73  88 SW5       29.91S FOG
LEXINGTON      CLOUDY    81  72  74 MISG      29.92F
SELMER         CLOUDY    82  73  74 W10G17    29.93F
SAVANNAH       CLOUDY    84  72  65 SW14      29.93F
$$

TNZ008-025-027-028-033-062-065-066-272000-
NORTH MIDDLE TENNESSEE

CITY           SKY/WX    TMP DP  RH WIND       PRES   REMARKS
NASHVILLE      PTSUNNY   79  72  79 E10       29.92F
PORTLAND       PTSUNNY   81  72  74 VRB7G14   29.93F
CLARKSVILLE    MOSUNNY   83  71  67 SW13      29.90F
SMYRNA         PTSUNNY   84  71  65 SW9       29.93F
COOKEVILLE     CLOUDY    79  70  73 S6        29.96F
GALLATIN       MOSUNNY   81  70  69 CALM      29.95F
CROSSVILLE     CLOUDY    75  67  76 W6        30.02S
$$

TNZ061-075-076-078-094-096-097-272000-
SOUTH MIDDLE TENNESSEE

CITY           SKY/WX    TMP DP  RH WIND       PRES   REMARKS
FAYETTEVILLE   PTSUNNY   81  70  69 SW10      29.97F
TULLAHOMA      MOSUNNY   81  68  65 SW14      29.99S
WINCHESTER     PTSUNNY   81  68  65 SW12        N/A
MCMINNVILLE    MOSUNNY   82  70  65 W16       29.97S
COLUMBIA       MOSUNNY   82  72  69 S15       29.92F
SHELBYVILLE    PTSUNNY   81  70  69 SW12G18   29.96S
$$

TNZ017-018-042-046-047-272000-
NORTHEAST TENNESSEE

CITY           SKY/WX    TMP DP  RH WIND       PRES   REMARKS
TRI CITIES     CLOUDY    79  67  66 W9        29.97F
ELIZABETHTON   CLOUDY    77  66  69 SW6       29.98R
$$

TNZ012-013-036-069-073-074-272000-
CENTRAL EAST TENNESSEE

CITY           SKY/WX    TMP DP  RH WIND       PRES   REMARKS
KNOXVILLE      CLOUDY    79  66  64 W13       29.97R
OAK RIDGE      CLOUDY    79  65  62 VRB6      29.98F
DOWNTOWN KNOXV PTSUNNY   79  70  73 SW9       29.97S
GATLINBURG     MOSUNNY   81  66  61 W10       29.96R
MORRISTOWN     PTSUNNY   81  68  65 NW9       29.97R
JACKSBORO      PTSUNNY   81  70  69 SW9       29.99F
$$

TNZ083-085-099-272000-
SOUTHEAST TENNESSEE

CITY           SKY/WX    TMP DP  RH WIND       PRES   REMARKS
CHATTANOOGA    PTSUNNY   86  67  52 SW16G25   29.97F
$$

SKY/WX REPORTED AS FAIR MEANS FEW OR NO CLOUDS BELOW
12 THOUSAND FEET.




USA.gov is the U.S. government's official web portal to all federal, state and local government web resources and services.